Flag for Germany Weather past 2 weeks in Dillenburg, Hesse, Germany

Now
34 °F

Light rain. Low clouds.


Feels Like: 31 °F
Forecast: 34 / 37 °F
Wind: 3 mph from Southwest

Location: Giessen

Current Time: Jan 26, 2015 at 1:52:53 AM

Latest Report: Jan 26, 2015 at 1:00 AM


Visibility: 2 mi

Pressure: 30.37 "Hg

Humidity: 100%

Dew point: 34 °F

Location of DillenburgLocation

Historic Weather in Dillenburg — Graph

°F

Dillenburg temperature yesterday

Maximum temperature yesterday: 36 °F (at 2:00 PM)
Minimum temperature yesterday: 22 °F (at 3:00 AM)
Average temperature yesterday: 32 °F

Past Weeks' High & Low Weather Summary

 TemperatureHumidityPressure
High53 °F (Jan 13, 3:00 PM)100% (Jan 18, 2:00 AM)30.43 "Hg (Jan 18, 2:00 AM)
Low22 °F (Jan 25, 3:00 AM)53% (Jan 13, 3:00 PM)29.59 "Hg (Jan 15, 7:00 PM)
Average36 °F89%30.00 "Hg
* Reported Jan 11 1:00 AM — Jan 26 1:00 AM, Dillenburg, Weather by CustomWeather, © 2014

Note: Actual official high and low records may vary slightly from our data, if they occured in-between our weather recording intervals... More about our weather records

Advertising

Dillenburg weather history for previous 24 hours

 ConditionsComfort  
Time TempWeatherWind HumidityBarometerVisibility
1:00 AM
Jan 26
34 °FLight rain. Low clouds.3 mph100%30.37 "Hg2 mi
12:00 AM34 °FLight rain. Low clouds.3 mph100%30.38 "Hg3 mi
11:00 PM
Jan 25
34 °FFog.2 mph98%30.38 "Hg3 mi
10:00 PM34 °FFog.5 mph100%30.39 "Hg4 mi
9:00 PM35 °FLow clouds.5 mph99%30.40 "Hg3 mi
8:00 PM35 °FDrizzle. Low clouds.5 mph99%30.40 "Hg2 mi
7:00 PM35 °FLow clouds.3 mph99%30.40 "Hg2 mi
6:00 PM35 °FFog.5 mph98%30.40 "Hg3 mi
5:00 PM35 °FFog.3 mph98%30.40 "Hg3 mi
4:00 PM36 °FFog.5 mph96%30.39 "Hg4 mi
3:00 PM36 °FFog.5 mph95%30.39 "Hg4 mi
2:00 PM36 °FFog.5 mph95%30.40 "Hg4 mi
1:00 PM36 °FFog.5 mph95%30.40 "Hg4 mi
12:00 PM34 °FFog.6 mph96%30.42 "Hg4 mi
11:00 AM33 °FFog.6 mph98%30.43 "Hg3 mi
10:00 AM32 °FFog.3 mph99%30.42 "Hg4 mi
9:00 AM31 °FOvercast.3 mph100%30.41 "Hg6 mi
8:00 AM29 °FOvercast.2 mph99%30.40 "Hg6 mi
7:00 AM31 °FPassing clouds.3 mph100%30.38 "Hg8 mi
6:00 AM30 °FPassing clouds.3 mph100%30.37 "Hg11 mi
4:00 AM26 °FPassing clouds.2 mph100%30.35 "Hg3 mi
3:00 AM22 °FPassing clouds.2 mph100%30.35 "Hg1 mi
2:00 AM28 °FClear.2 mph100%30.32 "Hg6 mi
1:00 AM25 °FPassing clouds.1 mph100%30.31 "Hg4 mi
Weather by CustomWeather, © 2014

See weather overviewHow to use our weather pages